SCOUT B DEB, 2498

Orbit data source: Space-Track

SCOUT B DEB, 2498 is space debris in LEO originally from a launch on Fri, 10 Jun 1966 UTC launched from the Wallops Island (WLPIS). Debris objects in space refer to the collection of defunct objects orbiting the Earth. Examples of debris include non-operational satellites, rocket bodies, and fragments generated from explosions, collisions, or faulty payload assembly.

Loading next visibility...
Identifier
2498, 1966-052C
Orbit
LEO
Country
Flag of USUS
Related business
Manufacturer
Unknown
Mission
Spacecraft
Bus & Motor
Unknown
Mass
Unknown
Launch date (UTC)
1966-06-10 (60 years ago)
Launch vehicle
Unknown
Launch site
Wallops Island (WLPIS)
Object type
Payload
Rocket body
Debris
Shape & HBR
Unknown shape, 0.1 m
Radar Cross Section
Small (<0.1 m²)

Expand to show TLE details & history
Last TLE update: 1 week ago

TLE from 1 week ago
0 SCOUT B DEB
1 02498U 66052C   26097.35358163  .00000508  00000-0  45974-3 0  9995
2 02498  40.6409 341.1315 2068174 217.2976 126.4746 10.56386898469371
Epoch: 2026-04-07T08:29Z
TLE epoch observation values (Epoch: 2026-04-07T08:29:09.452Z)
Latitude
-0.00006°
Longitude
18.21054°
Altitude
3,675.158 km
Speed
5.821 km/s
True Right ascension
22h 44m 31s
True Declination
0° 00' 00"
Sunlit
Object was in daylight at epoch
Visualization orbit readout
Latitude
Unknown
Longitude
Unknown
Altitude
Unknown
Speed
Unknown
Apparent Right ascension
Unknown
Apparent Declination
Unknown
Sunlit
N/A
Visualization observer readout
Local Sidereal Time
17:30:27
Azimuth
Unknown
Elevation
Unknown
Doppler factor
Unknown
Orbital elements
Apogee altitude
4,212.567 km
Perigee altitude
582.62 km
Semi-major axis
8,775.73 km
Eccentricity
0.20682
Inclination
40.6409°
RAAN
341.1315°
Arg. of periapsis
217.2976°
True anomaly
142.76613°
Mean anomaly
126.4746°
Eccentric anomaly
134.8723°
Mean motion
2.64009 °/min
Orbital period
136.36 mins
BSTAR
0.00045974
Loading maneuver chart data...
Computing Atmospheric mass density...
Loading historical data...
Loading historical data...
Loading historical data...
Loading historical data...
Loading historical data...
Loading historical data...
Loading historical data...
Other satellites on launch #52 in the year 1966 (1966-06-10 UTC)

Documentation

Showing up to 5 results
|